Location: Unspecified
(0.0000°N, 0.0000°E)
Time: 20:30:13
(UTC+00:00)

DMSP 5D-2 F13 DEB - Pass Details

Date: 08 March 2026
Orbit: 780 x 797 km, 98.7° (Epoch: 11 April)

Event Time Altitude Azimuth Distance (km) Brightness Sun altitude
Rises 19:07:47 0° 167° (SSE) 3,264 ? -14.2°
Reaches altitude 10° 19:10:06 10° 167° (SSE) 2,335 ? -14.8°
Maximum altitude 19:15:16 89° 77° (ENE) 786 ? -16.1°
Drops below altitude 10° 19:20:25 10° 348° (NNW) 2,334 ? -17.4°
Sets 19:22:44 0° 348° (NNW) 3,262 ? -17.9°
